KG7HVA-13 Weather Reports


time (UTC)temp
C
wind
direction
speed
KPH
gust
KPH
rain 1hr
cm
rain 24hr
cm
rain mn
cm
humidity
%
barometer
mb
20260505040504 20 292 0.0 0.0 0.00 0.00 0.00 55 1014.9
20260505040005 21 292 0.0 0.0 0.00 0.00 0.00 55 1014.9
20260505035504 21 288 0.0 0.0 0.00 0.00 0.00 54 1014.9
20260505035004 21 292 0.0 0.0 0.00 0.00 0.00 54 1014.8
20260505034504 21 292 0.0 0.0 0.00 0.00 0.00 54 1014.5
20260505034004 21 292 0.0 0.0 0.00 0.00 0.00 54 1014.3
20260505033504 21 271 0.0 0.0 0.00 0.00 0.00 54 1014.2
20260505032004 22 290 3.2 3.2 0.00 0.00 0.00 54 1013.8
20260505031504 22 248 3.2 3.2 0.00 0.00 0.00 54 1013.8
20260505031004 22 270 1.6 1.6 0.00 0.00 0.00 55 1013.5
20260505030504 23 250 0.0 0.0 0.00 0.00 0.00 56 1013.5
20260505030004 23 135 0.0 0.0 0.00 0.00 0.00 56 1013.2
20260505025504 23 69 0.0 0.0 0.00 0.00 0.00 55 1013.2
20260505025004 23 69 0.0 0.0 0.00 0.00 0.00 55 1013.2
20260505024504 23 68 0.0 0.0 0.00 0.00 0.00 55 1013.2
20260505024004 23 68 0.0 0.0 0.00 0.00 0.00 55 1013.2
20260505023504 23 68 0.0 0.0 0.00 0.00 0.00 55 1013.2
20260505022504 23 68 0.0 0.0 0.00 0.00 0.00 55 1012.8
20260505022003 23 68 0.0 0.0 0.00 0.00 0.00 54 1013.2
20260505021004 23 0 0.0 0.0 0.00 0.00 0.00 54 1013.2
20260505020504 23 0 0.0 0.0 0.00 0.00 0.00 54 1013.2
20260505020004 23 0 0.0 0.0 0.00 0.00 0.00 54 1013.2
20260505015504 23 0 0.0 0.0 0.00 0.00 0.00 54 1013.2
20260505015004 23 0 0.0 0.0 0.00 0.00 0.00 54 1013.2
20260505014504 23 0 0.0 0.0 0.00 0.00 0.00 54 1013.2
20260505014004 23 0 0.0 0.0 0.00 0.00 0.00 54 1013.2
20260505013504 23 0 0.0 0.0 0.00 0.00 0.00 54 1013.2
20260505012503 23 68 0.0 0.0 0.00 0.00 0.00 54 1013.2
20260505012004 23 68 0.0 1.6 0.00 0.00 0.00 53 1013.2
20260505011504 23 68 1.6 1.6 0.00 0.00 0.00 53 1013.2
20260505011004 23 122 0.0 1.6 0.00 0.00 0.00 53 1013.2
20260505010504 23 112 0.0 0.0 0.00 0.00 0.00 53 1013.2
20260505010004 23 90 0.0 1.6 0.00 0.00 0.00 53 1013.3
20260505005503 23 107 0.0 1.6 0.00 0.00 0.00 53 1013.5
20260505005004 23 112 0.0 1.6 0.00 0.00 0.00 53 1013.5
20260505004504 23 90 0.0 1.6 0.00 0.00 0.00 52 1013.5
20260505004004 23 180 0.0 0.0 0.00 0.00 0.00 52 1013.5
20260505003503 23 90 0.0 0.0 0.00 0.00 0.00 52 1013.5
20260505003004 23 90 0.0 0.0 0.00 0.00 0.00 52 1013.5
20260505002504 23 164 0.0 0.0 0.00 0.00 0.00 51 1013.5
20260505002004 23 180 0.0 0.0 0.00 0.00 0.00 52 1013.5
20260505001004 23 81 0.0 0.0 0.00 0.00 0.00 51 1013.5
20260505000503 23 68 0.0 0.0 0.00 0.00 0.00 51 1013.5
20260505000004 23 45 0.0 0.0 0.00 0.00 0.00 51 1013.8
20260504235503 23 90 0.0 0.0 0.00 0.00 0.00 51 1013.8
20260504235003 23 90 0.0 0.0 0.00 0.00 0.00 51 1013.8
20260504234004 23 74 0.0 0.0 0.00 0.00 0.00 51 1013.8
20260504233504 23 158 0.0 0.0 0.00 0.00 0.00 52 1013.8
20260504233003 23 158 0.0 0.0 0.00 0.00 0.00 51 1013.8
20260504232503 23 90 0.0 0.0 0.00 0.00 0.00 51 1013.8
20260504232004 23 90 0.0 0.0 0.00 0.00 0.00 51 1013.8
20260504231504 23 68 0.0 0.0 0.00 0.00 0.00 51 1013.8
20260504230505 23 22 0.0 0.0 0.00 0.00 0.00 51 1013.8
20260504230004 23 135 0.0 0.0 0.00 0.00 0.00 51 1014.2
20260504225504 23 90 1.6 3.2 0.00 0.00 0.00 51 1014.2
20260504225004 23 90 0.0 1.6 0.00 0.00 0.00 51 1014.2
20260504224503 23 83 0.0 0.0 0.00 0.00 0.00 51 1014.5
20260504224003 23 112 0.0 1.6 0.00 0.00 0.00 51 1014.5
20260504223504 23 68 1.6 1.6 0.00 0.00 0.00 50 1014.5
20260504223004 23 135 0.0 0.0 0.00 0.00 0.00 51 1014.5
20260504222504 23 114 1.6 1.6 0.00 0.00 0.00 50 1014.5
20260504222003 22 68 0.0 0.0 0.00 0.00 0.00 50 1014.5
20260504221504 23 90 0.0 1.6 0.00 0.00 0.00 50 1014.9
20260504221004 23 72 3.2 3.2 0.00 0.00 0.00 50 1014.9
20260504220504 23 112 0.0 0.0 0.00 0.00 0.00 50 1014.9
20260504220004 23 90 3.2 3.2 0.00 0.00 0.00 50 1015.2
20260504215004 23 292 1.6 1.6 0.00 0.00 0.00 50 1015.2
20260504214504 23 336 0.0 0.0 0.00 0.00 0.00 50 1015.2
20260504213504 23 202 0.0 0.0 0.00 0.00 0.00 50 1015.2
20260504213004 23 172 0.0 0.0 0.00 0.00 0.00 50 1015.2
20260504212503 23 270 0.0 0.0 0.00 0.00 0.00 50 1015.2
20260504212003 23 248 0.0 0.0 0.00 0.00 0.00 49 1015.5
20260504211503 23 251 0.0 0.0 0.00 0.00 0.00 49 1015.5
20260504210504 23 90 0.0 0.0 0.00 0.00 0.00 49 1015.5
20260504210004 23 102 0.0 1.6 0.00 0.00 0.00 49 1015.7
20260504205504 23 45 1.6 1.6 0.00 0.00 0.00 49 1015.9
20260504205004 23 68 0.0 4.8 0.00 0.00 0.00 49 1015.9
20260504204504 23 80 0.0 4.8 0.00 0.00 0.00 49 1015.9
20260504204004 23 89 0.0 0.0 0.00 0.00 0.00 49 1016.1
20260504203504 23 68 0.0 3.2 0.00 0.00 0.00 49 1016.0
20260504203004 23 68 0.0 3.2 0.00 0.00 0.00 49 1016.2
20260504202504 22 45 0.0 1.6 0.00 0.00 0.00 50 1016.2
20260504201504 22 91 1.6 1.6 0.00 0.00 0.00 49 1016.2
20260504201004 22 91 1.6 1.6 0.00 0.00 0.00 49 1016.2
20260504200504 22 90 1.6 1.6 0.00 0.00 0.00 49 1016.5
20260504200004 22 90 1.6 1.6 0.00 0.00 0.00 49 1016.5
20260504195503 22 90 1.6 1.6 0.00 0.00 0.00 49 1016.5
20260504195004 23 135 0.0 0.0 0.00 0.00 0.00 48 1016.5
20260504194504 23 68 1.6 3.2 0.00 0.00 0.00 48 1016.5
20260504194004 24 68 1.6 1.6 0.00 0.00 0.00 47 1016.5
20260504193504 24 68 1.6 1.6 0.00 0.00 0.00 47 1016.5
20260504193004 24 68 1.6 1.6 0.00 0.00 0.00 47 1016.5
20260504192504 24 248 0.0 0.0 0.00 0.00 0.00 49 1016.5
20260504192003 23 248 0.0 0.0 0.00 0.00 0.00 49 1016.5
20260504191004 23 112 0.0 0.0 0.00 0.00 0.00 49 1016.8
20260504190504 23 135 0.0 0.0 0.00 0.00 0.00 49 1016.9
20260504185003 22 45 1.6 1.6 0.00 0.00 0.00 50 1017.0
20260504184504 22 177 0.0 0.0 0.00 0.00 0.00 50 1016.9
20260504184004 22 135 0.0 0.0 0.00 0.00 0.00 49 1016.9
20260504183504 22 90 0.0 1.6 0.00 0.00 0.00 48 1016.9
20260504183004 23 86 1.6 1.6 0.00 0.00 0.00 48 1016.9
20260504182505 23 158 0.0 0.0 0.00 0.00 0.00 49 1016.9
20260504182004 23 135 0.0 4.8 0.00 0.00 0.00 48 1016.9
20260504181504 23 127 0.0 4.8 0.00 0.00 0.00 48 1016.9
20260504181004 23 202 0.0 0.0 0.00 0.00 0.00 49 1016.9
20260504175504 23 112 0.0 1.6 0.00 0.00 0.00 48 1017.1
20260504175003 23 68 1.6 1.6 0.00 0.00 0.00 48 1016.9
20260504174504 23 168 0.0 1.6 0.00 0.00 0.00 49 1016.9
20260504174004 23 180 0.0 0.0 0.00 0.00 0.00 49 1017.1
20260504172503 23 158 0.0 0.0 0.00 0.00 0.00 49 1016.9
20260504172004 23 202 0.0 0.0 0.00 0.00 0.00 49 1016.9
20260504171504 23 202 0.0 0.0 0.00 0.00 0.00 50 1016.9
20260504171003 23 202 0.0 0.0 0.00 0.00 0.00 51 1016.8
20260504151004 18 180 0.0 0.0 0.00 0.00 0.00 60 1016.2
20260504150504 18 180 0.0 0.0 0.00 0.00 0.00 61 1016.2
20260504140504 15 90 0.0 0.0 0.00 0.00 0.00 62 1015.5
20260504130504 16 90 0.0 0.0 0.00 0.00 0.00 59 1014.5
20260504110504 17 90 0.0 0.0 0.00 0.00 0.00 55 1012.8
20260504100504 19 135 0.0 0.0 0.00 0.00 0.00 50 1012.1
20260504082004 21 292 0.0 0.0 0.00 0.00 0.00 44 1011.5
20260504081003 21 292 0.0 0.0 0.00 0.00 0.00 43 1011.5
20260504080504 22 292 0.0 0.0 0.00 0.00 0.00 43 1011.5
20260504050504 24 270 0.0 0.0 0.00 0.00 0.00 39 1011.1
20260504050004 24 270 0.0 0.0 0.00 0.00 0.00 39 1010.8
20260504045004 25 270 0.0 0.0 0.00 0.00 0.00 39 1010.8
20260504044504 25 270 0.0 0.0 0.00 0.00 0.00 39 1010.8
20260504044004 25 270 0.0 0.0 0.00 0.00 0.00 38 1010.8
20260504043004 25 292 0.0 0.0 0.00 0.00 0.00 38 1010.8
20260504042004 25 292 0.0 3.2 0.00 0.00 0.00 38 1010.8
20260504041504 25 270 0.0 0.0 0.00 0.00 0.00 38 1010.7
20260504041004 25 270 0.0 0.0 0.00 0.00 0.00 38 1010.4